Hourly Weather Aliseda

Today, 7 March, Sunday

Time Temperature Precipitation Wind Pressure Humidity
00:00 +8°C° 0 mm 1 mps 724 mmHg 73%
01:00 +8°C° 0 mm 1 mps 724 mmHg 76%
02:00 +7°C° 0 mm 1 mps 724 mmHg 79%
03:00 +7°C° 0 mm 1 mps 723 mmHg 82%
04:00 +7°C° 0 mm 1 mps 723 mmHg 84%
05:00 +6°C° 0 mm 1 mps 723 mmHg 87%
06:00 +6°C° 0 mm 1 mps 723 mmHg 90%
07:00 +7°C° 0 mm 2 mps 723 mmHg 85%
08:00 +8°C° 0 mm 2 mps 724 mmHg 81%
09:00 +10°C° 0 mm 2 mps 724 mmHg 77%
10:00 +13°C° 0 mm 2 mps 724 mmHg 70%
11:00 +15°C° 0 mm 2 mps 724 mmHg 64%
12:00 +17°C° 0 mm 2 mps 724 mmHg 57%
13:00 +17°C° 0.1 mm 2 mps 723 mmHg 56%
14:00 +17°C° 0.1 mm 2 mps 723 mmHg 55%
15:00 +17°C° 0.1 mm 2 mps 722 mmHg 54%
16:00 +16°C° 0.2 mm 2 mps 722 mmHg 62%
17:00 +14°C° 0.2 mm 2 mps 721 mmHg 70%
18:00 +13°C° 0.2 mm 1 mps 721 mmHg 78%
19:00 +12°C° 0 mm 1 mps 721 mmHg 82%
20:00 +10°C° 0 mm 1 mps 722 mmHg 85%
21:00 +9°C° 0 mm 1 mps 722 mmHg 89%
22:00 +9°C° 0.1 mm 1 mps 722 mmHg 90%
23:00 +8°C° 0.1 mm 1 mps 722 mmHg 92%

Tomorrow, 8 March, Monday

Time Temperature Precipitation Wind Pressure Humidity
00:00 +8°C° 0.1 mm 1 mps 722 mmHg 93%
01:00 +7°C° 0 mm 1 mps 721 mmHg 94%
02:00 +6°C° 0 mm 0 mps 721 mmHg 94%
03:00 +6°C° 0 mm 0 mps 721 mmHg 95%
04:00 +5°C° 0 mm 0 mps 721 mmHg 96%
05:00 +5°C° 0 mm 0 mps 721 mmHg 96%
06:00 +4°C° 0 mm 0 mps 720 mmHg 97%
07:00 +5°C° 0 mm 0 mps 721 mmHg 95%
08:00 +6°C° 0 mm 0 mps 721 mmHg 94%
09:00 +7°C° 0 mm 0 mps 722 mmHg 92%
10:00 +9°C° 0 mm 1 mps 722 mmHg 90%
11:00 +10°C° 0 mm 1 mps 722 mmHg 88%
12:00 +10°C° 0 mm 1 mps 721 mmHg 85%
13:00 +11°C° 0 mm 1 mps 721 mmHg 82%
14:00 +12°C° 0 mm 1 mps 721 mmHg 79%
15:00 +13°C° 0 mm 1 mps 721 mmHg 76%
16:00 +12°C° 0 mm 1 mps 721 mmHg 78%
17:00 +12°C° 0 mm 1 mps 721 mmHg 81%
18:00 +11°C° 0 mm 1 mps 721 mmHg 83%
19:00 +10°C° 0 mm 1 mps 721 mmHg 84%
20:00 +9°C° 0 mm 1 mps 722 mmHg 85%
21:00 +6°C° 0 mm 2 mps 722 mmHg 86%
22:00 +6°C° 0 mm 2 mps 722 mmHg 84%
23:00 +5°C° 0 mm 2 mps 723 mmHg 83%

Day after tomorrow, 9 March, Tuesday

Time Temperature Precipitation Wind Pressure Humidity
00:00 +4°C° 0 mm 2 mps 723 mmHg 81%
01:00 +4°C° 0 mm 2 mps 723 mmHg 82%
02:00 +4°C° 0 mm 2 mps 723 mmHg 82%
03:00 +3°C° 0 mm 3 mps 723 mmHg 82%
04:00 +3°C° 0 mm 3 mps 723 mmHg 81%
05:00 +3°C° 0 mm 3 mps 723 mmHg 80%
06:00 +3°C° 0 mm 3 mps 723 mmHg 79%
07:00 +4°C° 0 mm 3 mps 724 mmHg 76%
08:00 +5°C° 0 mm 3 mps 724 mmHg 73%
09:00 +7°C° 0 mm 3 mps 724 mmHg 69%
10:00 +9°C° 0 mm 3 mps 725 mmHg 66%
11:00 +11°C° 0 mm 3 mps 725 mmHg 62%
12:00 +12°C° 0 mm 3 mps 725 mmHg 59%
13:00 +13°C° 0 mm 3 mps 725 mmHg 57%
14:00 +13°C° 0 mm 3 mps 724 mmHg 55%
15:00 +14°C° 0 mm 3 mps 724 mmHg 53%
16:00 +14°C° 0 mm 2 mps 724 mmHg 58%
17:00 +12°C° 0 mm 2 mps 724 mmHg 63%
18:00 +10°C° 0 mm 2 mps 724 mmHg 68%
19:00 +10°C° 0 mm 1 mps 725 mmHg 69%
20:00 +9°C° 0 mm 1 mps 725 mmHg 69%
21:00 +8°C° 0 mm 1 mps 726 mmHg 69%
22:00 +7°C° 0 mm 1 mps 726 mmHg 71%
23:00 +6°C° 0 mm 1 mps 726 mmHg 72%

10 March, Wednesday

Time Temperature Precipitation Wind Pressure Humidity
00:00 +5°C° 0 mm 0 mps 726 mmHg 74%
01:00 +5°C° 0 mm 1 mps 726 mmHg 75%
02:00 +5°C° 0 mm 1 mps 726 mmHg 77%
03:00 +5°C° 0 mm 1 mps 727 mmHg 79%
04:00 +4°C° 0 mm 1 mps 727 mmHg 80%
05:00 +3°C° 0 mm 0 mps 727 mmHg 81%
06:00 +3°C° 0 mm 0 mps 727 mmHg 82%
07:00 +5°C° 0 mm 0 mps 727 mmHg 76%
08:00 +7°C° 0 mm 0 mps 728 mmHg 70%
09:00 +9°C° 0 mm 0 mps 728 mmHg 64%
10:00 +11°C° 0 mm 0 mps 729 mmHg 60%
11:00 +13°C° 0 mm 0 mps 729 mmHg 55%
12:00 +16°C° 0 mm 1 mps 729 mmHg 50%
13:00 +16°C° 0 mm 1 mps 729 mmHg 49%
14:00 +18°C° 0 mm 1 mps 728 mmHg 47%
15:00 +17°C° 0 mm 2 mps 728 mmHg 46%
16:00 +16°C° 0 mm 1 mps 728 mmHg 53%
17:00 +14°C° 0 mm 1 mps 728 mmHg 61%
18:00 +13°C° 0 mm 1 mps 728 mmHg 68%
19:00 +11°C° 0 mm 1 mps 728 mmHg 71%
20:00 +10°C° 0 mm 1 mps 729 mmHg 75%
21:00 +9°C° 0 mm 1 mps 729 mmHg 78%
22:00 +8°C° 0 mm 1 mps 729 mmHg 80%
23:00 +7°C° 0 mm 0 mps 729 mmHg 81%

11 March, Thursday

Time Temperature Precipitation Wind Pressure Humidity
00:00 +6°C° 0 mm 0 mps 729 mmHg 82%
01:00 +6°C° 0 mm 0 mps 729 mmHg 83%
02:00 +6°C° 0 mm 0 mps 729 mmHg 83%
03:00 +5°C° 0 mm 0 mps 729 mmHg 84%
04:00 +5°C° 0 mm 0 mps 729 mmHg 85%
05:00 +5°C° 0 mm 0 mps 728 mmHg 86%
06:00 +4°C° 0 mm 0 mps 728 mmHg 87%
07:00 +6°C° 0 mm 0 mps 729 mmHg 81%
08:00 +8°C° 0 mm 0 mps 729 mmHg 75%
09:00 +10°C° 0 mm 0 mps 730 mmHg 69%
10:00 +11°C° 0 mm 0 mps 730 mmHg 65%
11:00 +14°C° 0 mm 1 mps 730 mmHg 60%
12:00 +16°C° 0 mm 1 mps 730 mmHg 56%
13:00 +16°C° 0 mm 2 mps 729 mmHg 56%
14:00 +17°C° 0 mm 2 mps 729 mmHg 56%
15:00 +18°C° 0 mm 2 mps 728 mmHg 56%
16:00 +17°C° 0 mm 2 mps 728 mmHg 64%
17:00 +15°C° 0 mm 2 mps 728 mmHg 71%
18:00 +14°C° 0 mm 2 mps 728 mmHg 79%
19:00 +13°C° 0 mm 2 mps 728 mmHg 84%
20:00 +12°C° 0 mm 2 mps 728 mmHg 88%
21:00 +10°C° 0 mm 2 mps 728 mmHg 93%
22:00 +10°C° 0 mm 1 mps 728 mmHg 93%
23:00 +9°C° 0 mm 1 mps 728 mmHg 93%

12 March, Friday

Time Temperature Precipitation Wind Pressure Humidity
00:00 +9°C° 0 mm 1 mps 728 mmHg 94%
01:00 +8°C° 0 mm 1 mps 727 mmHg 94%
02:00 +8°C° 0 mm 1 mps 727 mmHg 94%
03:00 +8°C° 0 mm 1 mps 727 mmHg 94%
04:00 +7°C° 0 mm 0 mps 727 mmHg 95%
05:00 +6°C° 0 mm 0 mps 727 mmHg 95%
06:00 +6°C° 0 mm 0 mps 727 mmHg 95%
07:00 +8°C° 0 mm 0 mps 727 mmHg 91%
08:00 +10°C° 0 mm 1 mps 727 mmHg 87%
09:00 +12°C° 0 mm 1 mps 727 mmHg 83%
10:00 +14°C° 0 mm 1 mps 728 mmHg 77%
11:00 +16°C° 0 mm 2 mps 728 mmHg 70%
12:00 +18°C° 0 mm 2 mps 728 mmHg 64%
13:00 +18°C° 0.1 mm 3 mps 727 mmHg 64%
14:00 +18°C° 0.1 mm 3 mps 726 mmHg 63%
15:00 +18°C° 0.1 mm 3 mps 726 mmHg 63%
16:00 +17°C° 0 mm 3 mps 726 mmHg 68%
17:00 +16°C° 0 mm 3 mps 725 mmHg 73%
18:00 +15°C° 0 mm 2 mps 725 mmHg 79%
19:00 +13°C° 0 mm 2 mps 725 mmHg 83%
20:00 +12°C° 0 mm 2 mps 726 mmHg 87%
21:00 +9°C° 0 mm 2 mps 726 mmHg 91%
22:00 +9°C° 0 mm 2 mps 726 mmHg 91%
23:00 +8°C° 0 mm 2 mps 726 mmHg 90%
Show more